Content
SEND FEEDBACK

Daily
Averages
Monthly
Summary
United States of America

SEWARD, ALASKA


Home > North America > United States > Alaska
Elevation: 25 feet     Latitude: 60 07N     Longitude: 149 25W

WEATHER
 
SELECT A DAY
Number of Records: 196,427;   Date Range: 1/1/95 - 4/16/14
 
SHARE

PRINT THIS DATA

[ ← Previous Day ]
WEATHER ALMANAC - JANUARY 23, 2013
[ Next Day → ]
[ °C ]   °F
Weather ElementAverageHighLow
Temperature42.5 °F45 °F (11:53 am)37.9 °F (8:53 pm)
Dewpoint31.5 °F33.1 °F (1:53 am)30 °F (3:53 pm)
Humidity65.4 %79 % (1:53 am)58 % (11:53 am)
Barometer29.27 in29.34 in (1:53 am)29.24 in (1:53 pm)
Wind Speed6.9 mph13.8 mph (6:53 am)
Wind Gust19.6 mph (3:53 pm)
Weather ElementAverage
Visibility10 mi
Wind DirectionSW (227.8 °)

Weather ElementTotal
Precipitation---
Heating Degree Days23.6 (Base 65)
Averaged from 23 records on January 23, 2013
WEATHER CONDITIONS BREAKOUT
WIND DIRECTION BREAKOUT
WEATHER BY HOUR - JANUARY 23, 2013
[ °C ]   °F
Local TimeTemperatureDewpointHumidityBarometerVisibilityWind DirectionWind SpeedGust SpeedPrecipitationEventsConditions
1:53 AM39.0 °F33.1 °F79 %29.34 in10.0 miCalmOvercast
2:53 AM42.1 °F33.1 °F70 %29.33 in10.0 miNNW (330°)8.1 mphOvercast
3:53 AM41.0 °F33.1 °F73 %29.31 in10.0 miNNE (20°)5.8 mphOvercast
4:53 AM42.1 °F33.1 °F70 %29.30 in10.0 miCalmOvercast
5:53 AM43.0 °F33.1 °F68 %29.28 in10.0 miNorth (360°)10.4 mphOvercast
6:53 AM43.0 °F33.1 °F68 %29.27 in10.0 miNorth (350°)13.8 mphOvercast
7:53 AM43.0 °F33.1 °F68 %29.26 in10.0 miNorth (360°)8.1 mph0.00 inOvercast
8:53 AM43.0 °F33.1 °F68 %29.26 in10.0 miNorth (360°)9.2 mphOvercast
9:53 AM43.0 °F32.0 °F65 %29.26 in10.0 miNorth (10°)11.5 mphOvercast
10:53 AM44.1 °F30.9 °F60 %29.25 in10.0 miNNW (340°)12.7 mph18.4 mphOvercast
11:53 AM45.0 °F30.9 °F58 %29.26 in10.0 miNorth (360°)12.7 mphOvercast
12:53 PM43.0 °F32.0 °F65 %29.25 in10.0 miNNW (340°)5.8 mphOvercast
1:53 PM44.1 °F30.9 °F60 %29.24 in10.0 miNorth (10°)8.1 mphOvercast
2:53 PM44.1 °F30.9 °F60 %29.24 in10.0 miNorth (350°)6.9 mphOvercast
3:53 PM44.1 °F30.0 °F58 %29.24 in10.0 miNorth (350°)11.5 mph19.6 mphOvercast
4:53 PM43.0 °F30.0 °F60 %29.24 in10.0 miNNW (340°)8.1 mphOvercast
5:53 PM43.0 °F30.0 °F60 %29.25 in10.0 miCalmOvercast
6:53 PM43.0 °F30.0 °F60 %29.27 in10.0 miNorth0.00 inOvercast
7:53 PM42.1 °F30.9 °F65 %29.28 in10.0 miNW (320°)3.5 mphOvercast
8:53 PM37.9 °F30.9 °F76 %29.28 in10.0 miCalmMostly Cloudy
9:53 PM41.0 °F30.9 °F67 %29.29 in10.0 miNorth (360°)3.5 mphOvercast
10:53 PM41.0 °F30.0 °F65 %29.30 in10.0 miNNW (340°)5.8 mphOvercast
11:53 PM42.1 °F30.0 °F62 %29.31 in10.0 miNNW (340°)6.9 mphOvercast
Hourly data recorded from PAWD, located 1.15 miles away from Seward, Alaska







STORIES FROM OUR PARTNERS